This demonstration page uses our WeatherBlox Daily Observations layout. Learn more.

41.86663, -103.66717

Hourly Observations for June 24, 2019

Temp ( °F °C ) Dew Point ( °F °C ) Humidity (%) Winds ( mph kmh ) Pressure ( in mb ) Visibility ( mi km ) Precip ( " mm )
12:53 am 00:53 Clear 49 9.4 49 9.4 100 100 ESE 7 11 29.88 1012 10 16.0934 0 0
1:53 am 01:53 Clear 48 9 N/A N/A E 6 9 29.88 1012 10 16.0934 0 0
2:53 am 02:53 Clear 46 7.8 46 7.8 100 100 Calm 29.85 1011 10 16.0934 0 0
3:53 am 03:53 Clear 46 8 N/A N/A Calm 29.84 1011 10 16.0934 0 0
4:53 am 04:53 Clear 43 6 N/A N/A Calm 29.84 1011 10 16.0934 0 0
5:53 am 05:53 Sunny 45 7 N/A N/A Calm 29.83 1010 10 16.0934 0 0
6:53 am 06:53 Sunny 49 9.4 49 9.4 100 100 Calm 29.82 1010 10 16.0934 0 0
7:53 am 07:53 Sunny 56 13.3 51 10.6 84 84 VRB 3 6 29.81 1009 10 16.0934 0 0
8:53 am 08:53 Sunny 63 17.2 52 11.1 68 68 VRB 5 7 29.79 1009 10 16.0934 0 0
9:53 am 09:53 Sunny 69 20.6 56 13.3 63 63 W 5 7 29.77 1008 10 16.0934 0 0
10:53 am 10:53 Sunny 74 23.3 62 16.7 67 67 WSW 8 13 29.76 1008 10 16.0934 0 0
11:53 am 11:53 Sunny 78 25.6 64 17.8 62 62 NNW 8 13 29.75 1007 10 16.0934 0 0
12:53 pm 12:53 Sunny 81 27.2 68 20 65 65 WNW 14 22 29.72 1007 10 16.0934 0 0
1:53 pm 13:53 Sunny 81 27.2 68 20 65 65 NW 10 17 29.71 1006 10 16.0934 0 0
2:53 pm 14:53 Mostly Sunny 83 28.3 71 21.7 67 67 WNW 13 20 29.69 1006 10 16.0934 0 0
3:53 pm 15:53 Sunny 82 27.8 69 20.6 65 65 NW 12 19 29.7 1006 10 16.0934 0 0
4:53 pm 16:53 Sunny 81 27.2 69 20.6 67 67 WNW 14 22 29.71 1006 10 16.0934 0 0
5:53 pm 17:53 Sunny 83 28.3 70 21.1 65 65 WNW 18 30 29.68 1005 10 16.0934 0 0
6:53 pm 18:53 Sunny 80 26.7 67 19.4 64 64 WNW 12 19 29.69 1005 10 16.0934 0 0
7:53 pm 19:53 Sunny 74 23.3 60 15.6 62 62 WNW 6 9 29.7 1006 10 16.0934 0 0
8:53 pm 20:53 Clear 64 17.8 50 10 60 60 NNE 8 13 29.75 1007 10 16.0934 0 0
9:53 pm 21:53 Clear 64 17.8 56 13.3 75 75 NNE 9 15 29.76 1008 10 16.0934 0 0
10:53 pm 22:53 Clear 60 15.6 53 11.7 78 78 SW 5 7 29.79 1009 10 16.0934 0 0
11:53 pm 23:53 Clear 59 15 53 11.7 81 81 Calm 29.8 1009 10 16.0934 0 0

Powered by AerisWeather